{"data":{"norad_id":65430,"intl_designator":"2025-192AC","name":"STARLINK-35025","alt_names":[],"object_type":"PAYLOAD","status":"ACTIVE","operator":null,"country":"US","launch_date":"2025-08-31","launch_site_code":"AFETR","launch_vehicle":null,"mission":null,"orbit_class":"UNKNOWN","rcs_meters":null,"size_class":null,"mass_kg":null,"dimensions":null,"purposes":["comms"],"wikipedia_slug":null,"has_3d_model":false,"image_url":null,"decayed_at":null,"tle_current":{"epoch":"2026-05-24T23:09:55.778688Z","epoch_age_seconds":74126,"freshness":"FRESH","line1":"1 65430U 25192AC  26144.96522892  .00024544  00000+0  73513-3 0  9997","line2":"2 65430  53.1581 237.9626 0001288  83.0792 277.0358 15.34402112 41062","mean_motion":15.34402112,"eccentricity":0.0001288,"inclination_deg":53.1581,"raan_deg":237.9626,"arg_perigee_deg":83.0792,"mean_anomaly_deg":277.0358,"bstar":0.00073513,"rev_number":4106,"period_min":93.847628906288,"perigee_km":461.8158634908,"apogee_km":463.57806231964,"semimajor_km":6840.8339629052,"source":"CELESTRAK","updated_at":"2026-05-25T13:38:20.804959Z"}}}